Wind_Gust
22 21 21 21 20 19 20 20 20 18 16 15 14 13 14 12 14 13 12 13 13 13 14 14 13 13 14 14 13 15 14 13 13 13 13 14 13 12 13 12 11 12
20 18 18 20 20 18 18 18 20 19 15 13 14 13 10 14 13 14 14 15 15 15 14 14 14 14 14 14 13 14 14 13 14 13 14 13 13 12 12 12 12 11
23 17 20 20 23 22 19 19 19 16 14 12 11 12 14 14 17 15 15 15 16 16 14 13 13 13 14 14 13 13 14 13 13 12 12 12 11 11 11 12 12 11
24 23 22 21 22 23 20 21 19 16 16 14 13 12 16 15 16 17 15 15 16 15 15 14 14 14 15 14 13 14 13 13 13 12 11 11 10 11 11 11 11 11
26 25 22 25 22 24 22 22 20 19 17 15 15 17 17 19 19 18 17 17 16 16 15 15 15 15 14 13 13 14 13 13 12 11 12 12 11 11 11 11 11 11
24 25 24 26 23 22 24 23 20 19 18 17 17 17 18 19 19 19 18 18 17 17 16 16 16 15 14 14 13 13 13 13 12 12 13 12 12 11 11 10 10 10
24 22 22 26 22 23 23 22 18 17 17 17 18 18 19 19 19 19 19 18 18 18 17 16 16 15 14 14 13 13 12 13 12 13 12 13 13 12 11 10 11 12
24 22 24 24 22 22 22 23 19 18 17 17 17 19 20 20 20 19 18 18 18 18 17 17 16 16 15 14 14 13 13 12 12 12 13 13 11 12 11 10 9 11
25 25 25 23 23 21 21 22 19 17 18 18 18 19 18 19 19 18 19 18 18 18 17 17 16 16 14 14 14 15 15 12 11 12 12 12 12 12 13 11 10 9
25 26 25 24 22 20 20 19 20 17 17 17 19 18 20 17 18 19 19 18 18 18 18 17 17 16 15 15 16 15 15 15 13 13 12 12 12 13 12 11 10 10
24 25 27 24 20 20 20 19 18 18 16 19 19 19 19 19 19 18 19 19 18 19 19 18 17 17 17 16 15 14 15 14 14 13 12 12 11 11 9 10 10 9
26 26 26 22 21 21 22 20 18 17 17 18 20 20 19 18 19 18 18 19 18 19 18 18 17 17 17 17 17 16 15 14 14 13 13 13 12 12 11 10 8 9
27 26 24 21 21 21 20 20 19 18 18 19 19 19 19 19 18 18 17 17 18 17 18 17 17 17 17 16 17 16 16 15 15 14 14 13 12 12 12 10 10 9
27 24 22 22 21 21 20 20 19 19 19 19 20 20 20 19 19 19 17 16 16 16 16 15 15 16 16 17 16 16 15 15 15 14 14 13 11 12 11 11 10 10
28 25 23 22 23 23 21 21 20 19 19 20 20 20 18 19 18 19 19 18 16 14 15 14 13 14 15 16 16 16 15 15 15 15 14 14 13 12 12 11 11 10
29 27 27 25 23 23 21 20 23 21 21 21 21 21 19 18 19 18 18 16 16 14 14 14 11 10 12 12 9 14 15 14 14 14 14 14 13 13 12 12 11 12
29 30 29 27 23 22 21 24 25 23 21 21 21 21 20 19 17 14 15 16 17 17 16 14 13 11 13 12 10 10 10 15 13 14 13 13 12 12 13 12 11 13
28 29 30 27 24 24 24 27 23 24 22 22 21 22 22 21 18 14 18 18 19 18 18 18 16 11 14 13 10 11 9 12 13 13 13 12 12 13 13 13 12 12
29 31 30 29 28 26 23 23 23 24 23 22 22 20 19 21 20 20 22 21 19 19 21 19 15 13 15 14 12 11 8 9 13 12 13 12 12 13 12 12 11 11
30 29 29 30 28 26 24 25 25 24 23 21 21 19 20 20 20 22 21 20 18 19 20 19 16 14 15 14 12 10 8 6 10 13 11 12 11 11 8 8 10 11
30 31 32 31 29 26 25 25 25 24 24 23 22 21 20 21 22 20 20 19 19 19 18 19 17 16 16 14 13 10 7 3 11 10 12 10 9 8 10 11 10 9
31 31 31 31 31 27 25 25 23 24 23 22 22 21 20 19 17 19 19 20 20 20 18 19 18 19 15 15 13 12 8 10 11 9 10 9 10 11 12 11 11 10
31 32 32 34 30 27 26 24 24 24 20 19 21 21 21 20 20 20 20 20 20 19 18 16 17 16 17 16 15 14 9 15 12 11 12 11 12 12 13 11 12 12
31 30 30 30 28 26 25 23 22 21 22 22 21 21 21 21 20 21 20 19 19 19 19 17 18 14 15 15 15 14 11 16 14 13 13 13 13 12 13 13 11 11
30 27 25 25 27 24 24 24 23 22 22 20 20 19 18 19 18 18 18 18 17 17 10 18 19 15 12 15 15 13 13 16 14 15 14 13 13 13 13 13 13 10
25 24 24 25 25 22 21 21 20 21 22 21 19 20 20 19 18 18 20 17 16 16 17 18 19 19 16 15 14 13 12 15 15 14 14 14 13 14 15 13 14 14
Wind_Speed
10 9 9 9 8 8 8 8 7 7 5 5 5 5 4 4 5 4 6 4 4 3 3 3 3 3 4 4 5 5 5 5 5 5 6 6 6 5 6 6 6 6
11 10 8 8 8 8 7 7 7 7 6 5 5 5 5 5 4 2 5 5 3 4 4 3 3 3 4 4 5 5 5 5 5 4 6 6 4 4 5 5 5 4
10 9 10 10 9 10 9 8 7 6 6 6 6 4 4 5 4 4 4 4 4 4 3 3 3 4 4 4 4 4 5 5 5 5 6 5 4 4 4 3 3 3
10 11 10 10 10 11 9 8 7 6 6 6 6 5 4 6 5 5 5 5 5 4 3 3 4 4 4 5 4 5 5 5 5 4 4 4 4 4 4 3 3 3
12 11 10 9 10 10 9 9 9 6 7 7 6 5 5 7 5 6 4 5 4 4 3 4 4 4 4 4 4 5 5 5 4 4 5 4 4 4 3 3 2 3
11 11 11 11 11 10 10 10 10 8 8 7 5 3 7 6 6 7 5 6 4 4 4 4 5 3 4 4 4 4 4 4 4 5 4 4 3 3 3 2 2 3
13 12 12 10 12 12 10 10 7 7 8 7 7 3 6 6 7 7 7 6 6 6 5 5 4 4 3 4 3 4 4 4 4 4 5 4 3 3 2 3 3 3
13 11 11 9 10 12 10 10 9 7 8 8 7 6 9 8 8 7 6 7 7 6 6 6 5 5 4 3 4 5 4 3 4 5 4 4 3 3 3 2 3 4
13 12 11 11 9 9 11 11 9 9 8 8 6 4 7 7 7 7 7 7 7 6 6 6 6 5 3 4 4 4 4 3 3 4 4 3 4 4 3 3 3 3
13 12 13 12 10 8 10 10 10 9 8 8 8 7 7 6 8 8 8 7 7 7 7 6 6 5 4 4 5 4 4 4 4 4 3 3 3 4 4 3 3 3
12 12 12 12 11 10 11 11 10 9 8 9 8 8 8 7 8 8 8 7 6 7 7 7 6 6 5 5 4 4 4 4 4 4 3 3 3 3 4 3 3 3
13 12 13 12 12 12 12 11 10 9 9 8 9 9 8 8 8 7 7 8 8 8 7 7 7 5 6 6 5 4 4 4 4 3 3 4 3 3 3 3 3 3
12 13 12 12 12 11 11 10 10 9 9 9 9 9 9 8 8 8 7 8 8 8 7 8 7 6 5 5 4 4 4 4 4 3 4 3 3 3 3 3 3 3
12 12 12 12 12 12 11 11 10 10 9 9 8 9 9 9 9 9 7 7 7 8 7 7 7 6 5 4 4 4 4 4 3 3 4 3 3 4 3 3 3 3
12 10 11 12 13 12 11 11 11 9 8 9 8 8 7 9 8 8 8 8 8 8 9 8 7 8 8 7 6 7 6 5 4 4 4 3 3 3 3 3 3 4
12 11 11 13 13 13 11 11 10 9 9 9 9 9 7 8 8 8 8 8 8 7 8 8 6 4 7 9 8 5 4 5 4 4 4 3 3 4 3 3 3 5
12 12 12 12 13 12 11 11 10 9 9 9 9 9 7 6 7 7 4 8 10 10 8 7 5 4 10 10 9 9 7 4 4 4 4 4 3 4 3 3 3 7
12 13 13 12 13 13 12 11 10 9 10 9 8 7 6 7 7 5 6 8 9 9 7 7 5 8 12 11 9 9 6 3 5 4 4 4 3 5 4 4 3 6
13 14 13 14 13 13 12 11 11 9 11 9 9 7 7 8 7 7 7 8 9 8 7 7 5 11 12 12 10 9 7 3 4 4 5 4 4 4 5 5 5 5
14 14 14 14 14 13 12 11 11 10 9 9 9 9 9 8 7 7 7 8 9 9 7 7 7 11 13 12 10 9 7 3 3 6 3 4 4 5 2 4 5 4
14 13 14 13 13 14 11 11 11 11 10 9 9 9 9 8 8 8 7 7 6 6 6 7 7 13 11 12 11 8 7 2 2 1 4 3 4 2 4 2 3 4
15 13 13 13 13 12 12 11 11 11 11 9 9 8 8 8 7 7 8 8 6 7 7 8 9 15 13 13 12 10 8 2 2 2 3 3 3 3 2 2 3 2
15 15 14 15 14 12 12 12 11 11 9 9 9 8 8 8 8 7 7 7 8 7 7 5 8 12 14 13 13 12 8 3 2 3 2 3 3 3 3 3 3 3
17 17 16 16 14 14 13 12 10 8 9 9 10 9 8 7 7 7 7 7 8 7 7 8 8 8 12 13 12 12 9 4 3 4 2 2 3 3 4 4 4 7
13 14 14 14 14 13 12 13 12 11 10 9 8 9 9 8 8 8 8 7 8 7 8 12 8 7 10 12 12 11 8 4 4 4 3 4 4 4 4 3 5 6
12 12 11 13 14 13 11 11 10 11 11 10 10 8 8 7 8 8 9 8 7 6 5 9 9 6 8 10 11 10 10 5 4 4 4 5 3 5 4 3 5 3
Wind_Direction
159 161 160 156 159 160 159 152 153 148 142 138 153 143 159 157 155 198 127 116 99 106 100 92 94 86 82 73 74 84 83 82 77 68 72 65 60 60 54 54 49 49
163 158 156 153 152 152 150 143 147 150 146 158 143 150 160 143 161 126 104 114 125 116 116 120 115 112 99 85 86 91 91 92 90 96 97 89 83 66 62 54 56 62
160 154 159 158 154 149 144 147 150 152 158 148 136 148 138 128 112 123 116 125 137 127 129 135 116 96 100 109 100 94 97 88 80 71 68 79 83 86 75 69 72 83
157 156 158 155 151 150 148 148 149 159 144 131 135 140 131 124 131 122 131 147 118 138 130 114 121 122 113 108 106 95 93 90 97 99 92 79 76 77 67 63 72 74
159 158 157 153 150 148 145 150 155 154 135 134 134 146 138 134 138 134 147 125 141 130 136 130 112 111 117 111 107 98 92 105 108 95 93 94 93 99 110 108 111 115
159 161 161 155 152 146 151 153 164 146 135 134 140 156 133 142 146 150 146 142 144 141 136 127 121 126 113 109 110 116 121 109 105 113 114 104 93 97 122 151 126 69
160 162 160 154 150 148 153 154 140 130 137 135 138 169 128 144 160 151 156 150 149 152 140 131 133 120 119 120 122 125 115 116 128 116 106 99 111 119 104 77 87 98
154 152 153 152 148 151 150 140 139 141 137 145 162 160 149 168 160 156 156 155 152 151 140 139 136 132 130 135 122 108 116 131 118 115 116 133 132 98 75 82 80 86
152 152 151 144 147 158 152 144 144 142 146 145 150 157 147 162 155 156 159 156 154 145 144 143 138 138 140 125 117 121 124 128 124 111 121 119 127 138 124 108 110 109
153 147 146 145 152 149 142 142 145 145 146 146 150 155 156 156 151 159 160 158 153 146 146 146 135 136 138 128 133 138 135 127 112 118 134 152 136 129 141 132 99 96
149 147 146 148 150 149 144 143 142 144 146 153 153 162 159 153 155 163 159 158 152 149 148 142 137 144 140 136 135 147 144 126 134 149 150 137 130 134 135 125 142 114
148 151 152 151 150 148 145 144 147 148 148 152 159 165 157 155 162 161 159 155 157 150 148 141 143 144 143 144 149 149 137 142 138 138 130 104 112 124 115 126 123 125
150 154 157 152 150 147 145 148 147 147 154 159 166 161 157 155 166 158 158 159 158 150 149 142 143 141 136 141 147 142 135 147 125 128 117 134 150 136 125 131 116 105
153 152 153 151 148 147 148 148 145 152 162 161 166 158 157 163 168 160 159 160 151 147 142 125 121 127 122 130 142 132 143 128 141 136 142 154 149 131 139 115 119 121
148 147 150 146 146 147 149 148 148 161 160 160 161 151 158 168 164 158 160 159 141 137 128 128 133 132 152 169 149 146 139 134 154 166 153 159 146 135 126 147 127 95
145 147 147 148 148 150 151 149 154 160 159 157 157 156 163 164 163 157 161 150 136 112 103 107 118 135 128 116 130 143 160 162 158 166 161 155 167 145 165 155 148 110
145 148 147 146 147 148 152 155 161 160 158 158 154 162 158 138 135 141 137 126 118 118 122 139 142 128 120 111 124 164 175 150 163 160 166 164 174 156 165 188 165 131
150 150 148 148 151 153 156 162 167 159 155 158 151 135 114 133 131 104 120 128 126 126 144 155 148 141 132 121 111 92 73 139 163 161 178 167 187 162 182 180 177 140
152 154 152 155 158 158 160 163 173 162 154 148 139 133 135 145 135 130 125 136 134 149 165 163 157 161 150 134 111 98 86 62 181 160 189 173 181 188 192 173 168 149
156 159 156 158 160 161 163 164 163 158 151 141 147 147 157 155 140 144 140 148 158 177 161 175 153 170 160 142 121 112 99 85 281 164 192 180 184 201 173 130 141 156
165 160 155 157 160 160 157 160 153 149 149 148 154 158 160 159 150 149 160 166 182 160 160 190 150 161 158 144 134 128 112 84 346 320 175 205 194 123 113 138 139 184
163 157 157 157 158 158 155 155 149 149 149 147 146 148 148 148 158 156 167 177 166 177 179 184 149 161 159 155 149 140 137 152 201 272 223 188 123 124 141 170 184 158
164 160 161 160 161 160 163 158 151 154 151 144 145 149 149 153 158 161 158 172 176 185 194 148 135 165 160 158 154 148 148 173 209 256 248 124 136 161 181 201 162 151
164 167 163 167 165 169 169 160 152 149 143 143 145 151 156 161 153 162 167 174 184 192 193 130 148 165 161 157 152 158 164 173 199 226 189 172 179 188 193 202 151 133
161 167 169 168 158 166 162 155 154 152 148 148 145 154 160 164 167 167 173 181 188 194 152 136 147 160 172 159 159 158 169 181 202 222 190 191 196 182 198 184 142 143
157 152 155 154 160 159 154 151 145 146 154 153 154 165 163 168 169 174 173 177 172 179 118 132 138 144 172 169 161 164 178 184 214 218 205 192 209 186 178 210 149 159